Location: Summit Observatory
(39.5293°N, 75.7290°W)
Time: 20:13:11
(UTC-04:00)

Amateur Radio Satellites - All Passes

Search period start: 01 July 2016 19:43
Search period end: 02 July 2016 19:43
Location: Summit Observatory, 39.5293°N, 75.7290°W

Satellite Date Start Highest point End Downlink Frequencies (MHz)
Time Altitude Azimuth
AAUSAT CUBESAT 2 01 Jul 19:48:51 19:51:15 15° 66° (ENE) 19:53:39 437.432
Cubesat XI-IV 01 Jul 20:00:26 20:03:33 16° 269° (W) 20:06:42 437.490
Cosmos 2499 01 Jul 20:02:04 20:10:05 48° 285° (WNW) 20:18:34 435.465 / 435.565
DANDE 01 Jul 20:02:06 20:05:39 25° 273° (W) 20:08:31 436.750
STRAND 1 01 Jul 20:05:51 20:10:55 54° 100° (E) 20:15:55 437.568
DOVE 4 01 Jul 20:12:33 20:16:11 27° 264° (W) 20:19:44 437.250
CUBEBUG 2 01 Jul 20:16:09 20:19:34 25° 69° (ENE) 20:23:04 437.445
COMPASS 1 01 Jul 20:24:32 20:28:34 46° 73° (ENE) 20:32:38 437.405
ZACube-1 01 Jul 20:28:07 20:30:39 16° 65° (ENE) 20:33:13 437.345
Oscar 11 01 Jul 20:30:41 20:33:39 18° 67° (ENE) 20:36:39 145.826/435.025
PRISM 01 Jul 20:31:36 20:33:12 12° 92° (E) 20:34:46 437.425
CANX-2 01 Jul 20:36:22 20:40:33 53° 260° (W) 20:44:47 2200.000
GONETS M04 01 Jul 20:37:04 20:43:17 21° 295° (WNW) 20:49:34
AUBIESAT-1 01 Jul 20:40:08 20:42:59 28° 66° (ENE) 20:45:54 437.475
CINEMA 3 01 Jul 20:42:04 20:46:02 45° 261° (W) 20:50:03 145.822/145.860
FUNcube-1 01 Jul 20:42:57 20:46:08 21° 67° (ENE) 20:49:23 145.935
HO-68 01 Jul 20:50:03 20:57:01 55° 259° (W) 21:04:03 435.675
SEEDS 01 Jul 20:53:11 20:57:21 55° 260° (W) 21:01:33 437.485
UWE-3 01 Jul 20:55:22 20:59:24 46° 73° (ENE) 21:03:32 435.000/436.395/437.385
CUTE 1.7 + AOD 2 01 Jul 20:55:58 20:59:55 36° 262° (W) 21:03:55 437.475
AO-85 01 Jul 21:02:06 21:07:32 79° 120° (ESE) 21:12:48 145.980
DELFI C3 01 Jul 21:05:49 21:08:37 18° 68° (ENE) 21:11:26 145.870
RS-15 01 Jul 21:09:53 21:22:17 83° 242° (WSW) 21:34:30 29.354- 29.394
HUMSAT D 01 Jul 21:12:20 21:13:07 10° 63° (ENE) 21:13:55 437.325/437.525
M-CUBED/EXP-1 PRIME 01 Jul 21:22:17 21:25:27 52° 254° (WSW) 21:28:41 437.505
AAUSAT CUBESAT 2 01 Jul 21:22:20 21:26:21 45° 261° (W) 21:30:23 437.432
STRAND 1 01 Jul 21:46:10 21:49:38 18° 297° (WNW) 21:53:04 437.568
CUBEBUG 2 01 Jul 21:52:38 21:56:07 25° 265° (W) 21:59:41 437.445
COMPASS 1 01 Jul 22:02:14 22:04:22 14° 269° (W) 22:06:31 437.405
ZACube-1 01 Jul 22:02:30 22:06:32 44° 261° (W) 22:10:41 437.345
PRISM 01 Jul 22:04:50 22:08:46 49° 287° (WNW) 22:12:42 437.425
Oscar 11 01 Jul 22:05:26 22:09:29 38° 262° (W) 22:13:35 145.826/435.025
AUBIESAT-1 01 Jul 22:15:54 22:17:36 13° 262° (W) 22:19:18 437.475
TIGRISAT 01 Jul 22:17:22 22:19:53 14° 91° (E) 22:22:22 435.000
FUNcube-1 01 Jul 22:18:24 22:22:10 31° 264° (W) 22:26:02 145.935
UNISAT 6 01 Jul 22:23:12 22:26:21 18° 93° (E) 22:29:29 437.425
UWE-3 01 Jul 22:33:59 22:36:09 14° 269° (W) 22:38:20 435.000/436.395/437.385
DELFI C3 01 Jul 22:39:36 22:43:13 32° 263° (W) 22:46:54 145.870
VELOX 1 01 Jul 22:43:23 22:45:19 13° 63° (ENE) 22:47:14 145.980
HUMSAT D 01 Jul 22:43:58 22:48:07 69° 258° (WSW) 22:52:22 437.325/437.525
AO-85 01 Jul 22:44:53 22:48:35 18° 317° (NW) 22:52:11 145.980
YUBILEINY 01 Jul 22:50:24 22:57:49 29° 69° (ENE) 23:05:10 435.215
ANTELSAT 01 Jul 23:01:49 23:06:18 45° 99° (E) 23:10:48 437.575/2403.000
UKube-1 01 Jul 23:04:44 23:06:48 13° 63° (ENE) 23:08:52 .
AISAT 01 Jul 23:22:18 23:26:16 34° 71° (ENE) 23:30:15 437.250
RS-15 01 Jul 23:24:56 23:32:51 20° 262° (W) 23:40:45 29.354- 29.394
NANOSAT C BR1 01 Jul 23:26:42 23:28:05 11° 91° (E) 23:29:27 145.865
DX 1 01 Jul 23:29:33 23:33:20 30° 70° (ENE) 23:37:09 434.975-435.025
QB50P1 01 Jul 23:31:04 23:33:18 14° 92° (E) 23:35:32 145.935-145.965
ESTCUBE 1 01 Jul 23:32:37 23:37:07 71° 75° (ENE) 23:41:39 437.505/2401.250
POPSAT HIP 1 01 Jul 23:34:26 23:36:55 15° 92° (E) 23:39:23 437.405
Cosmos 2504 01 Jul 23:38:03 23:43:43 18° 62° (ENE) 23:49:13 435.465 / 435.565
DUCHIFAT 1 01 Jul 23:44:10 23:47:01 17° 93° (E) 23:49:53 145.980
QB50P2 01 Jul 23:46:58 23:50:21 22° 95° (E) 23:53:43 145.880/145.840
POLYITAN 1 01 Jul 23:49:34 23:53:00 23° 95° (E) 23:56:26 437.675
TIGRISAT 01 Jul 23:52:17 23:56:52 56° 286° (WNW) 00:01:28 435.000
50 SAT 01 Jul 23:56:01 23:59:45 89° 77° (ENE) 00:03:30 437.505
UNISAT 6 01 Jul 23:58:47 00:03:14 45° 288° (WNW) 00:07:42 437.425
CUBEBUG 1 01 Jul 23:59:02 00:03:24 88° 256° (WSW) 00:07:45 437.445
Cosmos 2491 02 Jul 00:00:15 00:08:11 41° 87° (E) 00:16:06 435.465 / 435.565
SO-50 02 Jul 00:03:53 00:08:30 58° 55° (NE) 00:12:57 436.795
TISAT 1 02 Jul 00:07:26 00:08:09 10° 62° (ENE) 00:08:52 437.305
VELOX 1 02 Jul 00:16:54 00:21:15 61° 259° (WSW) 00:25:36 145.980
BUGSAT 1 02 Jul 00:24:26 00:27:38 22° 95° (E) 00:30:52 437.445
SPROUT 02 Jul 00:32:25 00:36:39 84° 79° (E) 00:40:56 437.525
UKube-1 02 Jul 00:38:08 00:42:22 55° 259° (W) 00:46:36 .
ANTELSAT 02 Jul 00:39:26 00:42:40 19° 294° (WNW) 00:45:54 437.575/2403.000
YUBILEINY 02 Jul 00:46:29 00:55:08 61° 269° (W) 01:03:45 435.215
JAS-2 02 Jul 00:59:16 01:03:55 28° 95° (E) 01:08:21 435.910
AISAT 02 Jul 00:59:34 01:02:49 20° 266° (W) 01:06:04 437.250
NANOSAT C BR1 02 Jul 00:59:58 01:04:08 57° 286° (WNW) 01:08:18 145.865
QB50P1 02 Jul 01:05:13 01:09:19 47° 287° (WNW) 01:13:25 145.935-145.965
DX 1 02 Jul 01:06:08 01:09:32 22° 265° (W) 01:12:56 434.975-435.025
BEESAT 02 Jul 01:07:42 01:08:58 11° 60° (ENE) 01:10:15 436.000
POPSAT HIP 1 02 Jul 01:08:50 01:12:53 43° 288° (WNW) 01:16:57 437.405
ITUPSAT 1 02 Jul 01:10:47 01:12:29 12° 61° (ENE) 01:14:12 437.325
ESTCUBE 1 02 Jul 01:13:49 01:14:22 10° 270° (W) 01:14:56 437.505/2401.250
DUCHIFAT 1 02 Jul 01:18:55 01:22:49 37° 289° (WNW) 01:26:44 145.980
QB50P2 02 Jul 01:22:26 01:26:08 29° 290° (WNW) 01:29:50 145.880/145.840
POLYITAN 1 02 Jul 01:25:05 01:28:46 28° 290° (WNW) 01:32:27 437.675
BEESAT 3 02 Jul 01:26:45 01:30:15 32° 115° (ESE) 01:33:47 437.485
Cosmos 2504 02 Jul 01:29:33 01:38:29 87° 85° (E) 01:46:53 435.465 / 435.565
PCSat 02 Jul 01:38:53 01:44:15 70° 115° (ESE) 01:49:41 145.827
TISAT 1 02 Jul 01:39:05 01:43:12 67° 258° (WSW) 01:47:23 437.305
SO-50 02 Jul 01:45:58 01:48:26 14° 252° (WSW) 01:50:51 436.795
Oscar 19 02 Jul 01:50:38 01:55:08 30° 96° (E) 01:59:36 437.125/150
O/OREOS (USA 219) 02 Jul 01:53:19 01:57:25 36° 105° (ESE) 02:01:32 437.305
Cosmos 2491 02 Jul 01:56:43 02:04:54 43° 286° (WNW) 02:13:06 435.465 / 435.565
BUGSAT 1 02 Jul 01:59:27 02:03:00 28° 290° (WNW) 02:06:34 437.445
BEESAT 2 02 Jul 02:11:42 02:15:34 57° 118° (ESE) 02:19:29 435.950
SWISSCUBE 02 Jul 02:16:29 02:21:12 61° 73° (ENE) 02:25:57 437.505
Gurwin Techsat 1B 02 Jul 02:37:29 02:42:25 37° 97° (E) 02:47:19 435.225
BEESAT 02 Jul 02:41:15 02:46:02 83° 257° (WSW) 02:50:51 436.000
JAS-2 02 Jul 02:44:14 02:49:03 32° 293° (WNW) 02:53:37 435.910
ITUPSAT 1 02 Jul 02:44:50 02:49:38 79° 256° (WSW) 02:54:29 437.325
MOZHAYETS 4 02 Jul 02:49:36 02:51:41 13° 63° (ENE) 02:53:46
BEESAT 3 02 Jul 03:04:53 03:07:59 22° 312° (NW) 03:11:06 437.485
PCSat 02 Jul 03:24:24 03:28:12 19° 314° (NW) 03:32:01 145.827
Cosmos 2504 02 Jul 03:25:07 03:30:32 18° 283° (WNW) 03:35:50 435.465 / 435.565
AIST 2 02 Jul 03:26:50 03:29:39 18° 111° (ESE) 03:32:29 435.215
Oscar 19 02 Jul 03:29:55 03:34:22 31° 292° (WNW) 03:38:49 437.125/150
AO-7 02 Jul 03:33:08 03:39:22 23° 93° (E) 03:45:32 29.400- 29.500
O/OREOS (USA 219) 02 Jul 03:33:30 03:36:55 21° 302° (WNW) 03:40:21 437.305
BEESAT 2 02 Jul 03:51:26 03:53:45 15° 316° (NW) 03:56:05 435.950
SWISSCUBE 02 Jul 03:57:03 03:59:23 13° 269° (W) 04:01:42 437.505
ITAMSAT 1 02 Jul 04:00:13 04:05:29 79° 104° (ESE) 04:10:41 435.822/435.867
Cosmos 2499 02 Jul 04:04:51 04:07:54 12° 57° (ENE) 04:10:54 435.465 / 435.565
KKS-1 02 Jul 04:05:28 04:09:54 90° 286° (WNW) 04:14:21 437.445
Gurwin Techsat 1B 02 Jul 04:17:46 04:22:10 27° 294° (WNW) 04:26:33 435.225
AIST 1 02 Jul 04:23:12 04:27:28 76° 264° (W) 04:31:43
MOZHAYETS 4 02 Jul 04:23:41 04:28:16 66° 259° (WSW) 04:32:54
CUBESAT XI-V 02 Jul 04:26:45 04:29:37 16° 65° (ENE) 04:32:30 437.345
STARS 02 Jul 04:27:04 04:31:25 78° 75° (ENE) 04:35:47 437.465
GONETS M04 02 Jul 04:48:30 04:56:27 37° 73° (ENE) 05:04:23
PHONESAT 2.4 02 Jul 05:00:26 05:02:54 22° 152° (SSE) 05:05:24 2401.200-2431.200
AIST 2 02 Jul 05:03:58 05:07:50 39° 307° (NW) 05:11:44 435.215
HORYU 2 02 Jul 05:22:54 05:26:54 31° 97° (E) 05:30:54 437.375
AO-7 02 Jul 05:24:27 05:32:49 75° 291° (WNW) 05:41:08 29.400- 29.500
AO-85 02 Jul 05:35:39 05:40:02 48° 53° (NE) 05:44:02 145.980
ITAMSAT 1 02 Jul 05:41:48 05:44:14 13° 300° (WNW) 05:46:40 435.822/435.867
NOAA 15 02 Jul 05:47:21 05:49:02 11° 90° (E) 05:50:43 137.62
Cosmos 2499 02 Jul 05:54:22 06:03:02 65° 79° (E) 06:11:05 435.465 / 435.565
CUBESAT XI-V 02 Jul 06:01:59 06:06:34 52° 260° (W) 06:11:09 437.345
CUSAT 1 02 Jul 06:23:59 06:30:10 29° 91° (E) 06:35:30 437.405
PHONESAT 2.4 02 Jul 06:36:13 06:39:17 83° 163° (SSE) 06:42:20 2401.200-2431.200
Cubesat XI-IV 02 Jul 06:36:29 06:41:00 27° 95° (E) 06:45:29 437.490
ISS 02 Jul 06:40:54 06:43:14 18° 131° (SE) 06:45:35 145.825
GONETS M04 02 Jul 06:45:11 06:53:21 46° 272° (W) 07:01:32
HORYU 2 02 Jul 06:59:42 07:03:18 24° 293° (WNW) 07:06:54 437.375
NOAA 18 02 Jul 07:02:40 07:08:04 50° 100° (E) 07:13:27 137.9125
CUTE-I 02 Jul 07:09:01 07:14:18 55° 101° (E) 07:19:32 437.470
AO-85 02 Jul 07:17:28 07:19:57 15° 253° (WSW) 07:22:18 145.980
BRITE-PL 02 Jul 07:17:49 07:21:59 78° 284° (WNW) 07:26:15 437.365/2234.400
AO-7 02 Jul 07:19:21 07:24:12 17° 311° (NW) 07:29:02 29.400- 29.500
STRAND 1 02 Jul 07:20:39 07:25:45 71° 74° (ENE) 07:30:54 437.568
DANDE 02 Jul 07:21:33 07:29:18 43° 92° (E) 07:36:19 436.750
NOAA 15 02 Jul 07:24:07 07:29:23 79° 285° (WNW) 07:34:36 137.62
GOMX 1 02 Jul 07:30:43 07:34:58 62° 101° (E) 07:39:25 467.674
LilacSat-2 02 Jul 07:40:56 07:44:45 55° 285° (WNW) 07:48:33 437.200
Cosmos 2499 02 Jul 07:48:41 07:55:20 26° 279° (W) 08:01:41 435.465 / 435.565
CUSAT 1 02 Jul 08:04:44 08:12:03 51° 282° (WNW) 08:18:06 437.405
DOVE 4 02 Jul 08:10:31 08:14:57 77° 103° (ESE) 08:19:39 437.250
PHONESAT 2.4 02 Jul 08:12:52 08:15:57 73° 4° (N) 08:19:00 2401.200-2431.200
Cubesat XI-IV 02 Jul 08:16:12 08:21:07 37° 291° (WNW) 08:26:01 437.490
ISS 02 Jul 08:16:19 08:19:27 44° 327° (NNW) 08:22:36 145.825
HO-68 02 Jul 08:18:57 08:25:14 31° 96° (E) 08:31:28 435.675
CANX-2 02 Jul 08:22:37 08:26:17 27° 96° (E) 08:29:55 2200.000
CINEMA 3 02 Jul 08:36:39 08:41:05 43° 98° (E) 08:45:41 145.822/145.860
SEEDS 02 Jul 08:38:23 08:41:55 25° 95° (E) 08:45:24 437.485
CUTE 1.7 + AOD 2 02 Jul 08:41:32 08:45:34 39° 98° (E) 08:49:32 437.475
NOAA 18 02 Jul 08:44:09 08:48:20 22° 297° (WNW) 08:52:31 137.9125
UWE-3 02 Jul 08:47:54 08:49:22 11° 90° (E) 08:50:49 435.000/436.395/437.385
CUTE-I 02 Jul 08:50:08 08:53:53 20° 297° (WNW) 08:57:38 437.470
PRISM 02 Jul 08:52:46 08:56:55 82° 255° (WSW) 09:01:05 437.425
STRAND 1 02 Jul 09:03:10 09:05:25 13° 270° (W) 09:07:40 437.568
DANDE 02 Jul 09:04:18 09:12:05 42° 285° (WNW) 09:19:06 436.750
AAUSAT CUBESAT 2 02 Jul 09:05:42 09:09:19 28° 96° (E) 09:12:52 437.432
GOMX 1 02 Jul 09:11:07 09:12:36 12° 296° (WNW) 09:14:07 467.674
TIGRISAT 02 Jul 09:16:58 09:18:04 11° 62° (ENE) 09:19:09 435.000
UNISAT 6 02 Jul 09:22:21 09:24:30 14° 63° (ENE) 09:26:41 437.425
RS-15 02 Jul 09:26:34 09:32:05 15° 95° (E) 09:37:40 29.354- 29.394
CUBEBUG 2 02 Jul 09:42:54 09:47:34 68° 101° (E) 09:52:18 437.445
COMPASS 1 02 Jul 09:43:31 09:47:42 79° 286° (WNW) 09:51:51 437.405
BEESAT 3 02 Jul 09:45:10 09:47:50 17° 46° (NE) 09:50:28 437.485
PHONESAT 2.4 02 Jul 09:49:32 09:52:30 47° 200° (SSW) 09:55:28 2401.200-2431.200
ZACube-1 02 Jul 09:51:23 09:55:38 37° 97° (E) 09:59:52 437.345
DOVE 4 02 Jul 09:51:25 09:52:07 10° 297° (WNW) 09:52:49 437.250
AUBIESAT-1 02 Jul 09:52:33 09:56:12 30° 103° (ESE) 10:00:01 437.475
Oscar 11 02 Jul 09:53:18 09:57:24 39° 98° (E) 10:01:27 145.826/435.025
ISS 02 Jul 09:54:58 09:56:33 13° 346° (NNW) 09:58:09 145.825
CANX-2 02 Jul 09:58:34 10:02:01 24° 291° (WNW) 10:05:27 2200.000
ANTELSAT 02 Jul 09:59:56 10:03:49 33° 70° (ENE) 10:07:49 437.575/2403.000
HO-68 02 Jul 10:06:14 10:13:05 49° 293° (WNW) 10:19:55 435.675
FUNcube-1 02 Jul 10:06:29 10:10:57 50° 99° (E) 10:15:24 145.935
Cosmos 2491 02 Jul 10:12:22 10:18:03 18° 63° (ENE) 10:23:41 435.465 / 435.565
SEEDS 02 Jul 10:14:03 10:17:32 25° 291° (WNW) 10:20:59 437.485
CINEMA 3 02 Jul 10:14:37 10:17:56 20° 293° (WNW) 10:21:19 145.822/145.860
DELFI C3 02 Jul 10:17:57 10:21:31 31° 97° (E) 10:25:03 145.870
CUTE 1.7 + AOD 2 02 Jul 10:18:15 10:21:05 18° 294° (WNW) 10:23:55 437.475
UWE-3 02 Jul 10:21:36 10:26:13 68° 285° (WNW) 10:30:51 435.000/436.395/437.385
PCSat 02 Jul 10:27:45 10:32:58 46° 56° (NE) 10:38:09 145.827
POPSAT HIP 1 02 Jul 10:28:03 10:28:53 10° 63° (ENE) 10:29:43 437.405
HUMSAT D 02 Jul 10:29:00 10:32:14 20° 94° (E) 10:35:27 437.325/437.525
BEESAT 2 02 Jul 10:30:48 10:34:13 26° 50° (NE) 10:37:36 435.950
M-CUBED/EXP-1 PRIME 02 Jul 10:35:13 10:39:14 71° 289° (WNW) 10:43:34 437.505
DUCHIFAT 1 02 Jul 10:36:39 10:38:16 12° 63° (ENE) 10:39:52 145.980
QB50P2 02 Jul 10:39:36 10:42:08 16° 66° (ENE) 10:44:42 145.880/145.840
AAUSAT CUBESAT 2 02 Jul 10:41:24 10:44:38 22° 292° (WNW) 10:47:50 437.432
POLYITAN 1 02 Jul 10:42:11 10:44:47 16° 65° (ENE) 10:47:23 437.675
TIGRISAT 02 Jul 10:49:48 10:54:05 71° 258° (WSW) 10:58:31 435.000
UNISAT 6 02 Jul 10:56:28 11:00:42 55° 260° (W) 11:05:04 437.425
JAS-2 02 Jul 11:11:14 11:15:32 17° 60° (ENE) 11:19:37 435.910
BUGSAT 1 02 Jul 11:14:36 11:16:38 14° 65° (ENE) 11:18:40 437.445
CUBEBUG 2 02 Jul 11:21:30 11:23:38 13° 296° (WNW) 11:25:46 437.445
BEESAT 3 02 Jul 11:21:57 11:25:45 46° 243° (WSW) 11:29:31 437.485
AUBIESAT-1 02 Jul 11:27:16 11:30:31 23° 295° (WNW) 11:33:56 437.475
ESTCUBE 1 02 Jul 11:27:21 11:30:04 16° 92° (E) 11:32:45 437.505/2401.250
PHONESAT 2.4 02 Jul 11:28:09 11:28:37 10° 215° (SW) 11:29:06 2401.200-2431.200
ZACube-1 02 Jul 11:28:13 11:31:40 21° 293° (WNW) 11:35:07 437.345
Oscar 11 02 Jul 11:30:15 11:33:13 18° 294° (WNW) 11:36:11 145.826/435.025
RS-15 02 Jul 11:30:52 11:42:07 73° 116° (ESE) 11:54:03 29.354- 29.394
ISS 02 Jul 11:33:22 11:34:10 11° 7° (N) 11:34:57 145.825
ANTELSAT 02 Jul 11:37:23 11:40:36 20° 267° (W) 11:43:54 437.575/2403.000
FUNcube-1 02 Jul 11:43:59 11:46:45 16° 295° (WNW) 11:49:32 145.935
AIST 2 02 Jul 11:49:07 11:50:52 12° 42° (NE) 11:52:38 435.215
CUBEBUG 1 02 Jul 11:49:29 11:52:26 18° 93° (E) 11:55:22 437.445
YUBILEINY 02 Jul 11:50:37 11:58:03 33° 84° (E) 12:05:33 435.215
NANOSAT C BR1 02 Jul 11:50:45 11:54:56 89° 276° (W) 11:59:09 145.865
DELFI C3 02 Jul 11:53:22 11:56:09 18° 292° (WNW) 11:58:54 145.870
QB50P1 02 Jul 11:56:16 12:00:27 73° 258° (WSW) 12:04:40 145.935-145.965
POPSAT HIP 1 02 Jul 11:59:56 12:04:05 67° 258° (WSW) 12:08:17 437.405
O/OREOS (USA 219) 02 Jul 12:03:44 12:08:11 61° 66° (ENE) 12:12:38 437.305
HUMSAT D 02 Jul 12:04:02 12:07:54 32° 289° (WNW) 12:11:44 437.325/437.525
Cosmos 2491 02 Jul 12:07:20 12:16:05 89° 267° (W) 12:24:50 435.465 / 435.565
VELOX 1 02 Jul 12:08:14 12:11:56 26° 96° (E) 12:15:36 145.980
BEESAT 2 02 Jul 12:08:37 12:11:59 26° 247° (WSW) 12:15:20 435.950
DUCHIFAT 1 02 Jul 12:09:21 12:13:27 57° 260° (W) 12:17:35 145.980
PCSat 02 Jul 12:11:47 12:16:02 24° 253° (WSW) 12:20:17 145.827
QB50P2 02 Jul 12:13:36 12:17:35 42° 261° (W) 12:21:37 145.880/145.840
POLYITAN 1 02 Jul 12:16:16 12:20:13 41° 261° (W) 12:24:14 437.675
Cosmos 2504 02 Jul 12:18:24 12:21:49 13° 74° (ENE) 12:25:18 435.465 / 435.565
SPROUT 02 Jul 12:20:32 12:23:05 15° 92° (E) 12:25:37 437.525
UKube-1 02 Jul 12:26:30 12:30:03 25° 96° (E) 12:33:35 .
BUGSAT 1 02 Jul 12:47:46 12:51:37 44° 261° (W) 12:55:28 437.445
AISAT 02 Jul 12:49:05 12:53:30 80° 103° (ESE) 12:57:54 437.250
JAS-2 02 Jul 12:52:14 12:59:50 88° 73° (ENE) 13:06:41 435.910
DX 1 02 Jul 12:53:56 12:58:15 65° 101° (ESE) 13:02:33 434.975-435.025
50 SAT 02 Jul 12:59:30 13:03:10 61° 284° (WNW) 13:06:45 437.505
ESTCUBE 1 02 Jul 13:02:48 13:07:06 46° 288° (WNW) 13:11:21 437.505/2401.250
Oscar 19 02 Jul 13:06:28 13:11:16 41° 70° (ENE) 13:16:03 437.125/150
ISS 02 Jul 13:08:44 13:11:31 25° 27° (NNE) 13:14:17 145.825
TISAT 1 02 Jul 13:24:35 13:27:40 19° 94° (E) 13:30:43 437.305
CUBEBUG 1 02 Jul 13:24:51 13:28:50 37° 289° (WNW) 13:32:50 437.445
AIST 2 02 Jul 13:25:44 13:29:55 83° 238° (WSW) 13:34:04 435.215
ITAMSAT 1 02 Jul 13:41:01 13:43:37 14° 60° (ENE) 13:46:14 435.822/435.867
VELOX 1 02 Jul 13:44:38 13:48:19 27° 291° (WNW) 13:52:00 145.980
RS-15 02 Jul 13:45:05 13:55:37 38° 321° (NW) 14:06:44 29.354- 29.394
O/OREOS (USA 219) 02 Jul 13:45:28 13:47:00 12° 262° (W) 13:48:32 437.305
YUBILEINY 02 Jul 13:46:02 13:54:26 52° 283° (WNW) 14:02:58 435.215
SPROUT 02 Jul 13:55:09 13:59:13 43° 287° (WNW) 14:03:17 437.525
Gurwin Techsat 1B 02 Jul 13:57:32 14:02:42 54° 72° (ENE) 14:07:53 435.225
UKube-1 02 Jul 14:02:23 14:06:02 27° 291° (WNW) 14:09:40 .
Cosmos 2504 02 Jul 14:05:20 14:13:30 76° 94° (E) 14:22:14 435.465 / 435.565
Cosmos 2491 02 Jul 14:06:46 14:11:35 16° 283° (WNW) 14:16:26 435.465 / 435.565
SO-50 02 Jul 14:17:34 14:21:29 24° 112° (ESE) 14:25:25 436.795
SWISSCUBE 02 Jul 14:18:49 14:21:50 17° 92° (E) 14:24:50 437.505
AO-7 02 Jul 14:31:10 14:38:10 31° 58° (ENE) 14:45:12 29.400- 29.500
DX 1 02 Jul 14:32:22 14:33:53 12° 298° (WNW) 14:35:24 434.975-435.025
JAS-2 02 Jul 14:41:04 14:45:21 16° 270° (W) 14:49:27 435.910
BEESAT 02 Jul 14:42:46 14:46:48 26° 96° (E) 14:50:48 436.000
ISS 02 Jul 14:44:57 14:48:03 41° 224° (SW) 14:51:09 145.825
ITUPSAT 1 02 Jul 14:46:41 14:50:49 28° 96° (E) 14:54:56 437.325
Oscar 19 02 Jul 14:46:42 14:50:42 23° 266° (W) 14:54:42 437.125/150
TISAT 1 02 Jul 14:59:35 15:03:22 33° 289° (WNW) 15:07:09 437.305
ITAMSAT 1 02 Jul 15:17:13 15:22:25 76° 257° (WSW) 15:27:41 435.822/435.867
Gurwin Techsat 1B 02 Jul 15:39:26 15:42:58 18° 268° (W) 15:46:30 435.225
SWISSCUBE 02 Jul 15:55:16 15:59:53 49° 288° (WNW) 16:04:28 437.505
SO-50 02 Jul 15:57:08 16:01:45 41° 308° (NW) 16:06:23 436.795
KKS-1 02 Jul 15:58:13 16:01:19 18° 94° (E) 16:04:25 437.445
Cosmos 2504 02 Jul 16:01:33 16:07:50 23° 295° (WNW) 16:14:25 435.465 / 435.565
JUGNU 02 Jul 16:01:39 16:02:37 10° 183° (S) 16:03:35 437.505
RS-15 02 Jul 16:04:52 16:13:07 20° 355° (N) 16:21:32 29.354- 29.394
STARS 02 Jul 16:18:41 16:21:14 15° 93° (E) 16:23:47 437.465
MOZHAYETS 4 02 Jul 16:19:53 16:24:00 31° 96° (E) 16:28:04
HORYU 2 02 Jul 16:20:14 16:23:54 26° 68° (ENE) 16:27:37 437.375
BEESAT 02 Jul 16:20:21 16:24:33 31° 291° (WNW) 16:28:43 436.000
AO-7 02 Jul 16:22:13 16:30:24 61° 256° (WSW) 16:38:42 29.400- 29.500
ITUPSAT 1 02 Jul 16:24:27 16:28:35 29° 292° (WNW) 16:32:41 437.325
AIST 1 02 Jul 16:51:12 16:55:27 65° 95° (E) 16:59:43
NOAA 18 02 Jul 16:51:47 16:53:45 12° 57° (ENE) 16:55:44 137.9125
BRITE-PL 02 Jul 16:53:01 16:54:16 11° 64° (ENE) 16:55:30 437.365/2234.400
CUTE-I 02 Jul 16:54:51 16:56:02 11° 58° (ENE) 16:57:13 437.470
NOAA 15 02 Jul 17:05:35 17:09:13 19° 63° (ENE) 17:12:52 137.62
SRMSAT 02 Jul 17:24:44 17:25:47 10° 178° (S) 17:26:48 437.500
KKS-1 02 Jul 17:33:53 17:38:01 39° 289° (WNW) 17:42:09 437.445
GONETS M04 02 Jul 17:48:25 17:56:27 44° 88° (E) 18:04:29
STARS 02 Jul 17:53:35 17:57:49 46° 288° (WNW) 18:02:02 437.465
HORYU 2 02 Jul 17:56:36 18:00:22 27° 264° (W) 18:04:10 437.375
MOZHAYETS 4 02 Jul 17:57:14 18:01:01 25° 292° (WNW) 18:04:46
Cubesat XI-IV 02 Jul 17:57:25 18:02:22 40° 70° (ENE) 18:07:22 437.490
CUBESAT XI-V 02 Jul 17:59:27 18:03:49 40° 98° (E) 18:08:07 437.345
DANDE 02 Jul 18:06:09 18:08:28 14° 63° (ENE) 18:10:31 436.750
RS-15 02 Jul 18:21:05 18:31:26 30° 31° (NNE) 18:41:47 29.354- 29.394
LilacSat-2 02 Jul 18:21:41 18:25:24 59° 75° (ENE) 18:29:10 437.200
BRITE-PL 02 Jul 18:27:18 18:32:16 77° 258° (WSW) 18:36:50 437.365/2234.400
NOAA 18 02 Jul 18:28:05 18:33:33 86° 74° (ENE) 18:39:05 137.9125
Cosmos 2499 02 Jul 18:28:21 18:36:25 54° 90° (E) 18:44:56 435.465 / 435.565
CUTE-I 02 Jul 18:29:50 18:35:11 81° 75° (ENE) 18:40:35 437.470
GOMX 1 02 Jul 18:38:04 18:42:31 59° 75° (ENE) 18:46:44 467.674
CUSAT 1 02 Jul 18:42:38 18:45:45 55° 264° (W) 18:48:24 437.405
NOAA 15 02 Jul 18:43:24 18:48:34 54° 259° (W) 18:53:45 137.62
HO-68 02 Jul 18:47:47 18:53:02 23° 58° (ENE) 18:58:19 435.675
CANX-2 02 Jul 19:15:04 19:18:02 19° 67° (ENE) 19:21:01 2200.000
DOVE 4 02 Jul 19:15:26 19:19:39 67° 76° (ENE) 19:23:47 437.250
SEEDS 02 Jul 19:29:57 19:32:40 17° 66° (ENE) 19:35:23 437.485
STRAND 1 02 Jul 19:32:41 19:36:57 26° 95° (E) 19:41:09 437.568
CUTE 1.7 + AOD 2 02 Jul 19:33:30 19:37:01 25° 69° (ENE) 19:40:33 437.475
